Location: Archemont
(49.1579°N, 1.7598°E)
Time: 09:01:28
(UTC+00:00)

Vanguard 1 Rocket - Pass Details

Date: 26 April 2024
Orbit: 650 x 4220 km, 34.3° (Epoch: 29 May)

Event Time Altitude Azimuth Distance (km) Brightness Sun altitude
Rises 21:23:25 0° 251° (WSW) 3,505 10.7 -19.1°
Reaches altitude 10° 21:26:45 10° 228° (SW) 2,926 9.9 -19.4°
Maximum altitude 21:30:46 16° 193° (SSW) 2,994 9.7 -19.8°
Enters shadow 21:31:25 16° 188° (S) 3,083 9.7 -19.8°
